Hourly Data Report for November 18, 2018

TORONTO CITY
ONTARIO
Current Station Operator: ECCC - MSC

43°40'00.000" N
79°24'00.000" W
112.50 m
6158355
71508
XTO

Download Data

Hourly Data (November 2018)
Hourly Data Report for November 18, 2018
TIME
LST
Temp Definition
°C
Dew Point Definition
°C
Rel Hum Definition
%
Precip. Amount Definition
mm

Wind Dir Definition
10's deg

Wind Spd Definition
km/h
Visibility Definition
km
Stn Press Definition
kPa
Hmdx Definition


Wind Chill Definition


Weather Definition


00:00 -1.4 -5.5 74 0.0 LegendMM LegendMM   101.32     LegendNANA
01:00 -1.6 -5.3 76 0.0 LegendMM LegendMM   101.32     LegendNANA
02:00 -2.5 -5.2 82 0.0 LegendMM LegendMM   101.30     LegendNANA
03:00 -2.1 -5.0 80 0.0 LegendMM LegendMM   101.32     LegendNANA
04:00 -1.7 -5.6 75 0.0 LegendMM LegendMM   101.28     LegendNANA
05:00 -1.1 -5.9 70 0.0 LegendMM LegendMM   101.28     LegendNANA
06:00 -1.3 -6.2 70 0.0 LegendMM LegendMM   101.26     LegendNANA
07:00 -0.7 -6.7 64 0.0 LegendMM LegendMM   101.24     LegendNANA
08:00 -0.1 -5.6 67 0.0 LegendMM LegendMM   101.25     LegendNANA
09:00 0.9 -7.1 55 0.0 LegendMM LegendMM   101.25     LegendNANA
10:00 1.3 -8.0 50 0.0 LegendMM LegendMM   101.21     LegendNANA
11:00 1.6 -7.6 50 0.0 LegendMM LegendMM   101.14     LegendNANA
12:00 1.7 -6.2 56 0.0 LegendMM LegendMM   101.06     LegendNANA
13:00 1.9 -6.8 52 0.0 LegendMM LegendMM   100.95     LegendNANA
14:00 1.9 -6.5 54 0.0 LegendMM LegendMM   100.88     LegendNANA
15:00 2.1 -5.5 57 0.0 LegendMM LegendMM   100.82     LegendNANA
16:00 2.3 -4.7 60 0.0 LegendMM LegendMM   100.76     LegendNANA
17:00 2.4 -4.4 61 0.0 LegendMM LegendMM   100.73     LegendNANA
18:00 2.8 -2.9 66 0.0 LegendMM LegendMM   100.69     LegendNANA
19:00 2.9 -0.5 78 0.0 LegendMM LegendMM   100.67     LegendNANA
20:00 3.0 0.8 86 0.0 LegendMM LegendMM   100.65     LegendNANA
21:00 3.3 1.2 86 0.0 LegendMM LegendMM   100.63     LegendNANA
22:00 2.6 -0.9 78 0.0 LegendMM LegendMM   100.62     LegendNANA
23:00 2.2 -2.7 70 0.0 LegendMM LegendMM   100.62     LegendNANA

Notes on Data Quality.

Legend

  • E = Estimated
  • M = Missing
  • NA = Not Available*
  • [empty] = Indicates an unobserved value
Date modified: